GW1320 Weather Reports


time (UTC)temp
F
wind
direction
speed
knots
gust
knots
rain 1hr
in
rain 24hr
in
rain mn
in
humidity
%
barometer
mb
20260508184559 64 244 5.2 12.2 0.00 0.00 0.00 56 1010.4
20260508183050 64 252 2.6 12.2 0.00 0.00 0.00 57 1010.5
20260508181557 63 265 4.3 10.4 0.00 0.00 0.00 59 1010.7
20260508180044 61 270 2.6 8.7 0.00 0.00 0.00 60 1011.4
20260508174547 61 305 6.1 11.3 0.00 0.00 0.00 62 1011.8
20260508173045 60 227 6.1 10.4 0.00 0.00 0.00 63 1012.2
20260508171548 59 309 7.8 10.4 0.00 0.00 0.00 66 1012.6
20260508170046 58 303 7.0 13.0 0.00 0.00 0.00 65 1012.8
20260508164543 58 276 10.4 13.0 0.00 0.00 0.00 65 1012.9
20260508163051 58 263 6.1 13.9 0.00 0.00 0.00 66 1013.0
20260508161546 56 268 7.0 9.6 0.00 0.00 0.00 67 1013.1
20260508154549 54 239 4.3 8.7 0.00 0.00 0.00 68 1013.4
20260508153046 53 236 4.3 11.3 0.00 0.00 0.00 68 1013.3
20260508151549 53 222 6.1 11.3 0.00 0.00 0.00 68 1013.3
20260508150047 53 229 5.2 11.3 0.00 0.00 0.00 70 1013.5
20260508144548 53 244 5.2 9.6 0.00 0.00 0.00 69 1013.5
20260508143059 52 239 4.3 10.4 0.00 0.00 0.00 69 1013.4
20260508141552 52 241 5.2 8.7 0.00 0.00 0.00 70 1013.4
20260508140043 52 238 5.2 11.3 0.00 0.00 0.00 68 1013.5
20260508134548 52 254 6.1 9.6 0.00 0.00 0.00 69 1013.5
20260508133054 52 241 5.2 10.4 0.00 0.00 0.00 69 1013.5
20260508131546 52 250 5.2 10.4 0.00 0.00 0.00 70 1013.4
20260508130054 51 238 7.8 10.4 0.00 0.00 0.00 69 1013.4
20260508124544 51 250 6.1 8.7 0.00 0.00 0.00 71 1013.4
20260508123047 49 221 4.3 7.8 0.00 0.00 0.00 74 1013.4
20260508121603 48 360 1.7 7.0 0.00 0.00 0.00 75 1013.4
20260508120050 48 360 2.6 5.2 0.00 0.00 0.00 75 1013.4
20260508114545 48 360 2.6 7.8 0.00 0.00 0.00 75 1013.1
20260508113049 47 192 2.6 7.0 0.00 0.00 0.00 77 1013.0
20260508111547 45 360 1.7 4.3 0.00 0.00 0.00 79 1012.9
20260508110055 44 360 0.9 3.5 0.00 0.00 0.00 81 1012.8
20260508104546 43 360 0.9 2.6 0.00 0.00 0.00 83 1012.8
20260508103041 43 360 0.9 2.6 0.00 0.00 0.00 84 1012.6
20260508101541 42 360 0.0 2.6 0.00 0.00 0.00 85 1012.4
20260508100048 43 360 0.9 2.6 0.00 0.00 0.00 85 1012.4
20260508094600 43 360 1.7 3.5 0.00 0.00 0.00 86 1012.4
20260508093047 42 360 0.9 2.6 0.00 0.00 0.00 87 1012.5
20260508091551 43 360 0.9 2.6 0.00 0.00 0.00 87 1012.7
20260508090042 44 360 0.9 3.5 0.00 0.00 0.00 86 1012.8
20260508084543 45 360 1.7 3.5 0.00 0.00 0.00 85 1012.8
20260508083127 46 360 1.7 2.6 0.00 0.00 0.00 84 1012.8
20260508081554 46 360 0.0 2.6 0.00 0.00 0.00 82 1012.9
20260508080052 46 360 1.7 2.6 0.00 0.00 0.00 83 1012.8
20260508074542 47 360 1.7 2.6 0.00 0.00 0.00 81 1012.9
20260508073300 47 360 0.9 2.6 0.00 0.00 0.00 82 1012.9
20260508071551 48 360 0.9 2.6 0.00 0.00 0.00 81 1013.0
20260508070047 48 0 0.0 1.7 0.00 0.00 0.00 79 1013.0
20260508064607 48 360 1.7 2.6 0.00 0.00 0.00 79 1013.0
20260508063047 49 0 0.0 4.3 0.00 0.00 0.00 78 1013.4
20260508061702 49 360 3.5 8.7 0.00 0.00 0.00 76 1013.9
20260508060049 49 360 7.0 12.2 0.00 0.00 0.00 76 1013.9
20260508054548 49 360 13.0 19.1 0.00 0.00 0.00 77 1014.3
20260508053042 48 360 2.6 4.3 0.00 0.00 0.00 84 1014.1
20260508051545 47 0 0.0 2.6 0.00 0.00 0.00 85 1013.3
20260508050052 48 360 1.7 2.6 0.00 0.00 0.00 86 1013.3
20260508044546 48 360 0.9 2.6 0.00 0.00 0.00 81 1013.4
20260508043048 48 0 0.0 1.7 0.00 0.00 0.00 79 1013.4
20260508041545 48 360 0.0 1.7 0.00 0.00 0.00 79 1013.4
20260508040043 48 0 0.0 2.6 0.00 0.00 0.00 79 1013.4
20260508034551 49 360 0.0 1.7 0.00 0.00 0.00 77 1013.4
20260508033048 49 0 0.0 1.7 0.00 0.00 0.00 75 1013.6
20260508031547 49 0 0.0 2.6 0.00 0.00 0.00 72 1013.5
20260508030059 49 0 0.0 0.9 0.00 0.00 0.00 70 1013.6
20260508024558 49 360 0.0 0.9 0.00 0.00 0.00 70 1013.4
20260508023048 50 0 0.0 1.7 0.00 0.00 0.00 66 1013.3
20260508021548 49 0 0.0 0.9 0.00 0.00 0.00 71 1013.2
20260508020050 49 0 0.0 3.5 0.00 0.00 0.00 70 1013.2
20260508014548 50 360 1.7 4.3 0.00 0.00 0.00 72 1013.3
20260508013048 50 360 0.9 3.5 0.00 0.00 0.00 70 1013.1
20260508011558 50 360 1.7 2.6 0.00 0.00 0.00 71 1013.1
20260508010058 51 0 0.0 1.7 0.00 0.00 0.00 74 1013.1
20260508004557 51 360 0.9 2.6 0.00 0.00 0.00 69 1013.0
20260508003049 52 360 0.9 1.7 0.00 0.00 0.00 69 1013.0
20260508001547 52 0 0.0 2.6 0.00 0.00 0.00 65 1012.8
20260508000047 53 295 0.9 3.5 0.00 0.00 0.00 62 1012.7
20260507234542 54 360 2.6 7.0 0.00 0.00 0.00 60 1012.6
20260507233041 55 311 7.0 8.7 0.00 0.00 0.00 53 1012.6
20260507231604 56 306 7.0 10.4 0.00 0.00 0.00 50 1012.6
20260507230052 55 319 8.7 13.0 0.00 0.00 0.00 54 1012.8
20260507224602 56 316 9.6 13.0 0.00 0.00 0.00 52 1012.8
20260507223047 56 333 7.0 13.9 0.00 0.00 0.00 51 1012.8
20260507221542 55 317 7.0 13.0 0.00 0.00 0.00 50 1012.9
20260507220041 56 24 7.8 16.5 0.00 0.00 0.00 50 1012.9
20260507214548 57 298 7.8 14.8 0.00 0.00 0.00 50 1012.7
20260507213104 56 319 12.2 18.2 0.00 0.00 0.00 51 1012.8
20260507211549 56 327 10.4 15.6 0.00 0.00 0.00 51 1012.6
20260507210052 56 327 13.0 16.5 0.00 0.00 0.00 54 1012.6
20260507204556 57 314 11.3 18.2 0.00 0.00 0.00 55 1012.5
20260507203048 56 309 13.0 19.1 0.00 0.00 0.00 52 1012.4
20260507201547 56 313 13.9 19.1 0.00 0.00 0.00 53 1012.6
20260507200049 56 323 7.0 14.8 0.00 0.00 0.00 53 1012.6
20260507194546 56 300 15.6 21.7 0.00 0.00 0.00 54 1012.7
20260507193045 55 313 15.6 20.9 0.00 0.00 0.00 57 1012.9
20260507191542 56 299 13.9 20.0 0.00 0.00 0.00 58 1012.9
20260507190056 56 329 12.2 17.4 0.00 0.00 0.00 57 1012.9